Flag Weather past 2 weeks in Luhansk, Ukraine

Now
27 °F

Clear.


Feels Like: 20 °F
Forecast: 21 / 29 °F
Wind: 6 mph from Northeast

Location: Rostov-Na-Donu

Current Time: Nov 23, 2014 at 7:18:48 PM

Latest Report: Nov 23, 2014 at 7:00 PM


Visibility: N/A

Pressure: 30.36 "Hg

Humidity: 69%

Dew point: 18 °F

Location of LuhanskLocation

Historic Weather in Luhansk — Graph

°F

Luhansk temperature yesterday

Maximum temperature yesterday: 34 °F (at 1:00 PM)
Minimum temperature yesterday: 19 °F (at 6:30 AM)
Average temperature yesterday: 26 °F

Past Weeks' High & Low Weather Summary

 TemperatureHumidityPressure
High54 °F (Nov 9, 3:00 PM)100% (Nov 8, 6:00 PM)30.39 "Hg (Nov 8, 6:00 PM)
Low18 °F (Nov 23, 7:00 AM)28% (Nov 21, 2:30 PM)30.12 "Hg (Nov 14, 2:00 PM)
Average37 °F83%30.27 "Hg
* Reported Nov 8 6:00 PM — Nov 23 6:00 PM, Luhansk, Weather by CustomWeather, © 2014

Note: Actual official high and low records may vary slightly from our data, if they occured in-between our weather recording intervals... More about our weather records

Advertising

Luhansk weather history for previous 24 hours

 ConditionsComfort  
Time TempWeatherWind HumidityBarometerVisibility
6:00 PM
Nov 23
28 °FClear.8 mph59%30.36 "HgN/A
5:30 PM30 °FClear.6 mph59%30.36 "HgN/A
5:00 PM32 °FClear.6 mph55%30.33 "HgN/A
4:30 PM32 °FSunny.6 mph55%30.33 "Hg10 mi
4:00 PM34 °FPassing clouds.6 mph60%30.33 "HgN/A
3:30 PM34 °FPassing clouds.6 mph60%30.33 "HgN/A
3:00 PM34 °FPassing clouds.6 mph60%30.33 "HgN/A
2:30 PM34 °FPassing clouds.8 mph60%30.33 "HgN/A
2:00 PM34 °FPassing clouds.6 mph60%30.33 "HgN/A
1:30 PM34 °FPassing clouds.8 mph56%30.33 "HgN/A
1:00 PM32 °FSunny.6 mph55%30.33 "Hg10 mi
12:30 PM30 °FSunny.8 mph59%30.33 "Hg10 mi
12:00 PM30 °FPassing clouds.10 mph59%30.33 "HgN/A
11:30 AM27 °FPassing clouds.8 mph69%30.33 "HgN/A
11:00 AM27 °FSunny.10 mph64%30.36 "Hg10 mi
10:30 AM27 °FSunny.10 mph64%30.33 "Hg10 mi
10:00 AM25 °FSunny.10 mph69%30.33 "Hg10 mi
9:30 AM23 °FSunny.10 mph74%30.33 "Hg10 mi
9:00 AM21 °FSunny.8 mph74%30.33 "Hg10 mi
8:30 AM19 °FClear.10 mph79%30.33 "Hg10 mi
8:00 AM18 °FClear.10 mph79%30.30 "Hg10 mi
7:30 AM18 °FClear.10 mph79%30.30 "HgN/A
7:00 AM18 °FClear.8 mph73%30.30 "HgN/A
6:30 AM19 °FClear.6 mph73%30.30 "HgN/A
6:00 AM19 °FClear.3 mph73%30.27 "HgN/A
5:30 AM19 °FClear.6 mph73%30.27 "HgN/A
5:00 AM19 °FClear.6 mph68%30.27 "HgN/A
4:30 AM21 °FClear.3 mph63%30.27 "HgN/A
4:00 AM21 °FClear.6 mph68%30.27 "HgN/A
3:30 AM21 °FClear.8 mph68%30.27 "HgN/A
3:00 AM21 °FClear.10 mph68%30.27 "HgN/A
2:30 AM21 °FClear.8 mph68%30.27 "HgN/A
2:00 AM21 °FClear.10 mph68%30.27 "HgN/A
1:30 AM23 °FClear.13 mph58%30.27 "HgN/A
1:00 AM23 °FClear.13 mph63%30.27 "HgN/A
12:30 AM23 °FClear.10 mph63%30.27 "HgN/A
12:00 AM23 °FClear.10 mph58%30.27 "HgN/A
11:30 PM
Nov 22
23 °FClear.13 mph63%30.27 "HgN/A
11:00 PM25 °FClear.10 mph54%30.27 "HgN/A
10:30 PM25 °FClear.13 mph54%30.27 "HgN/A
10:00 PM25 °FClear.13 mph54%30.27 "HgN/A
9:30 PM25 °FClear.13 mph54%30.27 "HgN/A
9:00 PM25 °FClear.13 mph54%30.27 "HgN/A
8:30 PM27 °FClear.15 mph50%30.27 "HgN/A
8:00 PM27 °FClear.15 mph50%30.27 "HgN/A
7:30 PM28 °FPassing clouds.15 mph47%30.27 "HgN/A
7:00 PM28 °FPassing clouds.13 mph47%30.27 "HgN/A
Weather by CustomWeather, © 2014

See weather overviewHow to use our weather pages